QPF
0.03 0.01 0.02 0.01 0.01 0.02 0.02 0.02 0.04 0.06 0.05 0.05 0.06 0.05 0.06 0.07 0.07 0.06 0.05 0.04 0.04 0.05 0.08 0.09 0.08 0.06 0.05 0.04 0.04 0.04 0.04 0.03 0.03 0.03 0.02 0.02 0.02 0.02 0.01 0.02 0.02 0.02 0.02
0.02 0.02 0.01 0.01 0.01 0.02 0.01 0.01 0.03 0.05 0.05 0.05 0.06 0.08 0.08 0.07 0.08 0.07 0.06 0.04 0.04 0.05 0.06 0.08 0.11 0.11 0.07 0.05 0.05 0.05 0.04 0.04 0.04 0.04 0.03 0.02 0.03 0.02 0.01 0.01 0.02 0.02 0.01
0.04 0.03 0.02 0.01 0.02 0.02 0.02 0.02 0.02 0.02 0.02 0.04 0.07 0.09 0.06 0.05 0.07 0.05 0.05 0.05 0.04 0.05 0.05 0.05 0.09 0.10 0.08 0.05 0.05 0.04 0.04 0.04 0.04 0.04 0.04 0.03 0.04 0.03 0.02 0.01 0.01 0.01 0.01
0.03 0.02 0.02 0.02 0.02 0.02 0.03 0.03 0.03 0.04 0.03 0.03 0.04 0.05 0.06 0.05 0.04 0.05 0.06 0.05 0.03 0.02 0.03 0.04 0.07 0.08 0.06 0.04 0.04 0.05 0.04 0.03 0.03 0.04 0.04 0.04 0.04 0.04 0.02 0.02 0.02 0.01 0.01
0.03 0.02 0.02 0.02 0.02 0.02 0.03 0.03 0.04 0.04 0.05 0.04 0.04 0.07 0.10 0.10 0.07 0.08 0.08 0.05 0.03 0.02 0.02 0.02 0.04 0.05 0.04 0.04 0.04 0.05 0.05 0.04 0.03 0.02 0.03 0.04 0.03 0.04 0.03 0.03 0.03 0.03 0.02
0.04 0.04 0.04 0.04 0.05 0.04 0.04 0.03 0.03 0.03 0.04 0.05 0.05 0.06 0.07 0.07 0.04 0.04 0.05 0.05 0.04 0.03 0.03 0.02 0.01 0.02 0.03 0.04 0.03 0.05 0.05 0.04 0.02 0.02 0.03 0.03 0.04 0.04 0.05 0.04 0.03 0.03 0.03
0.06 0.08 0.09 0.07 0.06 0.06 0.05 0.05 0.05 0.04 0.04 0.06 0.07 0.06 0.05 0.05 0.05 0.06 0.06 0.07 0.06 0.06 0.06 0.04 0.02 0.01 0.01 0.01 0.02 0.04 0.05 0.04 0.03 0.03 0.02 0.03 0.03 0.03 0.04 0.04 0.03 0.02 0.02
0.08 0.08 0.09 0.10 0.10 0.09 0.07 0.05 0.06 0.06 0.06 0.08 0.07 0.06 0.05 0.05 0.04 0.04 0.04 0.04 0.04 0.07 0.06 0.04 0.03 0.02 0.02 0.01 0.01 0.03 0.04 0.04 0.04 0.04 0.04 0.03 0.03 0.03 0.04 0.04 0.04 0.02 0.02
0.06 0.07 0.07 0.08 0.09 0.09 0.07 0.05 0.04 0.04 0.05 0.07 0.06 0.04 0.03 0.02 0.03 0.03 0.03 0.04 0.04 0.03 0.03 0.04 0.04 0.03 0.03 0.03 0.02 0.02 0.03 0.03 0.04 0.05 0.05 0.05 0.04 0.03 0.04 0.05 0.05 0.03 0.03
0.03 0.05 0.07 0.08 0.09 0.09 0.08 0.06 0.04 0.03 0.03 0.04 0.05 0.03 0.02 0.02 0.03 0.03 0.03 0.04 0.05 0.06 0.04 0.04 0.04 0.02 0.02 0.02 0.02 0.03 0.03 0.04 0.04 0.05 0.06 0.05 0.05 0.04 0.04 0.05 0.05 0.04 0.03
0.04 0.05 0.06 0.07 0.06 0.06 0.07 0.06 0.04 0.03 0.02 0.03 0.04 0.04 0.03 0.02 0.02 0.02 0.02 0.03 0.05 0.06 0.04 0.03 0.03 0.04 0.03 0.03 0.04 0.05 0.05 0.06 0.06 0.06 0.07 0.07 0.06 0.05 0.04 0.04 0.03 0.04 0.03
0.07 0.08 0.09 0.06 0.05 0.04 0.03 0.03 0.03 0.04 0.03 0.03 0.03 0.03 0.03 0.03 0.03 0.02 0.02 0.02 0.02 0.03 0.04 0.04 0.04 0.04 0.06 0.06 0.05 0.06 0.07 0.09 0.09 0.08 0.07 0.06 0.05 0.04 0.04 0.03 0.02 0.03 0.03
0.05 0.05 0.07 0.05 0.04 0.03 0.03 0.04 0.04 0.05 0.04 0.04 0.04 0.04 0.04 0.03 0.03 0.02 0.02 0.02 0.02 0.03 0.04 0.03 0.03 0.04 0.06 0.05 0.05 0.06 0.06 0.07 0.06 0.06 0.05 0.04 0.04 0.04 0.04 0.04 0.03 0.03 0.03
0.03 0.03 0.05 0.06 0.06 0.05 0.04 0.04 0.05 0.07 0.09 0.10 0.09 0.08 0.06 0.06 0.05 0.04 0.03 0.04 0.03 0.03 0.02 0.02 0.03 0.04 0.04 0.04 0.05 0.07 0.07 0.07 0.07 0.08 0.08 0.07 0.06 0.05 0.04 0.03 0.04 0.04 0.04
0.05 0.06 0.07 0.09 0.10 0.08 0.07 0.07 0.07 0.08 0.10 0.09 0.08 0.08 0.08 0.06 0.05 0.04 0.04 0.05 0.05 0.04 0.02 0.01 0.03 0.03 0.03 0.04 0.07 0.09 0.10 0.11 0.12 0.12 0.11 0.09 0.07 0.05 0.04 0.03 0.03 0.04 0.04
0.04 0.06 0.06 0.06 0.08 0.09 0.10 0.12 0.13 0.12 0.11 0.08 0.07 0.07 0.06 0.05 0.06 0.06 0.06 0.06 0.06 0.05 0.03 0.01 0.02 0.02 0.03 0.05 0.05 0.04 0.04 0.06 0.07 0.08 0.08 0.06 0.05 0.04 0.04 0.03 0.03 0.03 0.03
0.07 0.06 0.05 0.05 0.05 0.06 0.07 0.07 0.06 0.07 0.08 0.07 0.08 0.07 0.07 0.07 0.09 0.09 0.09 0.08 0.07 0.06 0.05 0.02 0.02 0.03 0.04 0.04 0.05 0.05 0.04 0.04 0.04 0.05 0.05 0.05 0.04 0.03 0.03 0.03 0.03 0.02 0.02
0.09 0.09 0.09 0.10 0.09 0.08 0.07 0.06 0.06 0.06 0.07 0.07 0.06 0.05 0.04 0.05 0.05 0.05 0.05 0.04 0.04 0.05 0.05 0.03 0.01 0.02 0.02 0.02 0.03 0.03 0.03 0.03 0.03 0.03 0.04 0.04 0.04 0.04 0.03 0.03 0.03 0.02 0.02
0.09 0.12 0.15 0.17 0.16 0.12 0.09 0.07 0.07 0.07 0.06 0.04 0.04 0.04 0.04 0.04 0.03 0.03 0.02 0.02 0.03 0.03 0.03 0.02 0.01 0.01 0.01 0.01 0.02 0.02 0.03 0.04 0.03 0.03 0.03 0.03 0.04 0.04 0.04 0.03 0.03 0.02 0.02
0.08 0.09 0.11 0.12 0.12 0.10 0.07 0.05 0.05 0.04 0.04 0.03 0.03 0.03 0.03 0.04 0.04 0.04 0.04 0.03 0.03 0.02 0.03 0.03 0.02 0.02 0.02 0.02 0.02 0.02 0.02 0.04 0.04 0.03 0.04 0.04 0.04 0.05 0.06 0.05 0.04 0.03 0.03
0.03 0.04 0.04 0.05 0.05 0.06 0.05 0.03 0.02 0.02 0.02 0.03 0.02 0.02 0.02 0.02 0.02 0.02 0.02 0.02 0.01 0.01 0.02 0.03 0.03 0.03 0.02 0.02 0.02 0.02 0.02 0.02 0.04 0.05 0.05 0.04 0.03 0.04 0.04 0.05 0.05 0.04 0.04
0.02 0.03 0.04 0.04 0.05 0.06 0.06 0.04 0.02 0.02 0.02 0.02 0.02 0.02 0.01 0.01 0.01 0.01 0.02 0.01 0.01 0.01 0.01 0.02 0.03 0.04 0.03 0.03 0.02 0.02 0.02 0.02 0.03 0.04 0.05 0.04 0.03 0.03 0.04 0.04 0.05 0.05 0.04
0.02 0.02 0.03 0.03 0.04 0.04 0.05 0.05 0.03 0.02 0.02 0.02 0.03 0.03 0.02 0.01 0.01 0.01 0.01 0.01 0.00 0.01 0.01 0.01 0.02 0.03 0.03 0.03 0.03 0.03 0.04 0.04 0.03 0.03 0.05 0.05 0.04 0.04 0.05 0.06 0.06 0.05 0.05
0.02 0.02 0.02 0.02 0.02 0.03 0.04 0.05 0.03 0.03 0.04 0.04 0.03 0.03 0.03 0.03 0.03 0.02 0.01 0.01 0.00 0.01 0.01 0.01 0.01 0.02 0.03 0.03 0.02 0.02 0.03 0.04 0.03 0.04 0.04 0.04 0.04 0.05 0.05 0.04 0.04 0.06 0.07
0.02 0.02 0.02 0.02 0.02 0.02 0.03 0.03 0.03 0.03 0.04 0.05 0.05 0.05 0.03 0.03 0.04 0.04 0.03 0.03 0.02 0.01 0.01 0.01 0.01 0.02 0.03 0.03 0.03 0.03 0.03 0.03 0.03 0.03 0.03 0.03 0.02 0.02 0.03 0.04 0.04 0.04 0.05
0.02 0.01 0.01 0.02 0.01 0.01 0.02 0.03 0.05 0.05 0.05 0.05 0.06 0.06 0.05 0.04 0.04 0.03 0.03 0.04 0.04 0.03 0.02 0.01 0.01 0.02 0.02 0.02 0.02 0.02 0.02 0.02 0.03 0.02 0.02 0.02 0.01 0.01 0.01 0.03 0.03 0.03 0.03
MSLP
1016.45 1016.56 1016.55 1016.42 1016.25 1016.07 1015.94 1015.90 1015.94 1016.06 1016.21 1016.36 1016.47 1016.54 1016.56 1016.54 1016.51 1016.50 1016.52 1016.57 1016.66 1016.76 1016.86 1016.96 1017.03 1017.08 1017.11 1017.15 1017.18 1017.23 1017.30 1017.37 1017.46 1017.56 1017.67 1017.78 1017.89 1018.02 1018.14 1018.25 1018.35 1018.43 1018.48
1016.36 1016.48 1016.48 1016.39 1016.25 1016.10 1016.00 1015.97 1016.02 1016.14 1016.28 1016.42 1016.53 1016.57 1016.56 1016.50 1016.42 1016.34 1016.30 1016.31 1016.36 1016.45 1016.55 1016.67 1016.77 1016.86 1016.93 1016.98 1017.03 1017.08 1017.14 1017.21 1017.30 1017.42 1017.55 1017.70 1017.87 1018.03 1018.19 1018.34 1018.47 1018.56 1018.63
1016.20 1016.33 1016.36 1016.32 1016.23 1016.14 1016.09 1016.10 1016.16 1016.28 1016.42 1016.54 1016.61 1016.61 1016.55 1016.44 1016.30 1016.17 1016.06 1016.01 1016.01 1016.07 1016.17 1016.29 1016.42 1016.54 1016.64 1016.73 1016.80 1016.87 1016.95 1017.03 1017.14 1017.28 1017.44 1017.63 1017.83 1018.04 1018.24 1018.42 1018.58 1018.70 1018.79
1016.03 1016.16 1016.23 1016.25 1016.24 1016.23 1016.24 1016.29 1016.38 1016.49 1016.61 1016.69 1016.72 1016.68 1016.57 1016.40 1016.21 1016.01 1015.84 1015.72 1015.67 1015.68 1015.75 1015.86 1016.00 1016.14 1016.28 1016.40 1016.51 1016.62 1016.72 1016.84 1016.97 1017.14 1017.33 1017.55 1017.78 1018.02 1018.26 1018.47 1018.66 1018.82 1018.95
1015.86 1015.99 1016.11 1016.20 1016.28 1016.36 1016.44 1016.54 1016.65 1016.75 1016.83 1016.88 1016.86 1016.77 1016.62 1016.41 1016.17 1015.92 1015.69 1015.51 1015.40 1015.35 1015.38 1015.46 1015.58 1015.72 1015.88 1016.03 1016.18 1016.32 1016.47 1016.63 1016.80 1017.00 1017.22 1017.46 1017.72 1017.99 1018.26 1018.51 1018.73 1018.93 1019.09
1015.72 1015.86 1016.02 1016.19 1016.35 1016.52 1016.67 1016.80 1016.92 1017.01 1017.06 1017.06 1017.01 1016.89 1016.71 1016.48 1016.22 1015.94 1015.67 1015.44 1015.27 1015.15 1015.11 1015.13 1015.21 1015.33 1015.48 1015.65 1015.83 1016.01 1016.20 1016.41 1016.62 1016.85 1017.11 1017.38 1017.66 1017.95 1018.24 1018.51 1018.76 1018.99 1019.20
1015.60 1015.76 1015.96 1016.19 1016.43 1016.66 1016.87 1017.03 1017.15 1017.22 1017.24 1017.21 1017.14 1017.01 1016.84 1016.62 1016.37 1016.09 1015.81 1015.54 1015.31 1015.12 1015.00 1014.94 1014.95 1015.02 1015.15 1015.31 1015.50 1015.72 1015.95 1016.19 1016.45 1016.72 1017.00 1017.29 1017.59 1017.89 1018.19 1018.49 1018.76 1019.02 1019.25
1015.51 1015.68 1015.92 1016.20 1016.49 1016.77 1017.00 1017.18 1017.29 1017.34 1017.34 1017.30 1017.23 1017.12 1016.99 1016.81 1016.61 1016.36 1016.09 1015.80 1015.52 1015.27 1015.05 1014.90 1014.83 1014.83 1014.90 1015.03 1015.22 1015.45 1015.71 1015.99 1016.28 1016.58 1016.89 1017.20 1017.51 1017.82 1018.13 1018.43 1018.72 1018.99 1019.24
1015.45 1015.62 1015.88 1016.20 1016.52 1016.82 1017.06 1017.22 1017.32 1017.35 1017.34 1017.30 1017.25 1017.20 1017.12 1017.03 1016.89 1016.70 1016.46 1016.17 1015.86 1015.54 1015.24 1014.99 1014.82 1014.73 1014.74 1014.83 1015.00 1015.22 1015.49 1015.79 1016.11 1016.44 1016.77 1017.09 1017.42 1017.73 1018.04 1018.34 1018.64 1018.91 1019.17
1015.41 1015.60 1015.87 1016.19 1016.51 1016.81 1017.03 1017.17 1017.24 1017.26 1017.24 1017.22 1017.21 1017.22 1017.23 1017.22 1017.16 1017.04 1016.84 1016.57 1016.23 1015.85 1015.48 1015.15 1014.88 1014.71 1014.65 1014.68 1014.81 1015.02 1015.29 1015.60 1015.93 1016.27 1016.61 1016.95 1017.28 1017.61 1017.92 1018.23 1018.52 1018.79 1019.04
1015.40 1015.60 1015.88 1016.19 1016.50 1016.76 1016.95 1017.06 1017.10 1017.09 1017.07 1017.07 1017.10 1017.17 1017.26 1017.33 1017.36 1017.30 1017.15 1016.89 1016.54 1016.13 1015.70 1015.30 1014.96 1014.72 1014.58 1014.57 1014.65 1014.83 1015.08 1015.38 1015.71 1016.05 1016.41 1016.76 1017.10 1017.44 1017.77 1018.07 1018.36 1018.63 1018.88
1015.43 1015.65 1015.92 1016.21 1016.49 1016.71 1016.85 1016.91 1016.91 1016.88 1016.86 1016.87 1016.94 1017.06 1017.20 1017.34 1017.42 1017.42 1017.30 1017.05 1016.70 1016.28 1015.82 1015.38 1014.99 1014.70 1014.52 1014.45 1014.49 1014.63 1014.85 1015.12 1015.44 1015.78 1016.13 1016.50 1016.86 1017.22 1017.56 1017.88 1018.18 1018.45 1018.69
1015.49 1015.73 1016.00 1016.27 1016.50 1016.67 1016.76 1016.77 1016.73 1016.67 1016.64 1016.65 1016.74 1016.88 1017.05 1017.22 1017.33 1017.35 1017.25 1017.02 1016.68 1016.26 1015.80 1015.35 1014.95 1014.63 1014.42 1014.32 1014.33 1014.42 1014.60 1014.83 1015.12 1015.44 1015.79 1016.16 1016.55 1016.93 1017.31 1017.66 1017.97 1018.25 1018.48
1015.56 1015.83 1016.10 1016.35 1016.54 1016.65 1016.69 1016.65 1016.57 1016.48 1016.43 1016.43 1016.51 1016.64 1016.82 1016.98 1017.09 1017.11 1017.02 1016.80 1016.47 1016.07 1015.64 1015.21 1014.83 1014.52 1014.30 1014.18 1014.15 1014.21 1014.33 1014.51 1014.76 1015.05 1015.39 1015.77 1016.17 1016.59 1017.00 1017.39 1017.74 1018.03 1018.27
1015.63 1015.93 1016.20 1016.42 1016.58 1016.65 1016.63 1016.55 1016.43 1016.32 1016.24 1016.22 1016.27 1016.38 1016.52 1016.65 1016.74 1016.74 1016.63 1016.42 1016.12 1015.76 1015.37 1014.99 1014.66 1014.39 1014.19 1014.06 1014.00 1014.01 1014.07 1014.20 1014.38 1014.64 1014.95 1015.32 1015.74 1016.19 1016.64 1017.08 1017.46 1017.79 1018.05
1015.68 1016.00 1016.27 1016.47 1016.59 1016.62 1016.57 1016.46 1016.31 1016.17 1016.07 1016.03 1016.04 1016.11 1016.20 1016.29 1016.33 1016.29 1016.17 1015.97 1015.70 1015.39 1015.06 1014.76 1014.49 1014.27 1014.10 1013.97 1013.89 1013.86 1013.86 1013.91 1014.04 1014.23 1014.51 1014.86 1015.29 1015.76 1016.25 1016.72 1017.15 1017.51 1017.79
1015.69 1016.02 1016.28 1016.47 1016.56 1016.57 1016.49 1016.36 1016.20 1016.04 1015.93 1015.86 1015.84 1015.87 1015.91 1015.93 1015.92 1015.85 1015.71 1015.52 1015.28 1015.03 1014.78 1014.55 1014.36 1014.20 1014.06 1013.95 1013.85 1013.77 1013.71 1013.70 1013.74 1013.87 1014.10 1014.42 1014.83 1015.31 1015.81 1016.31 1016.77 1017.16 1017.47
1015.66 1015.99 1016.24 1016.41 1016.48 1016.47 1016.38 1016.24 1016.08 1015.93 1015.81 1015.73 1015.69 1015.67 1015.66 1015.64 1015.58 1015.47 1015.32 1015.13 1014.93 1014.73 1014.55 1014.40 1014.28 1014.18 1014.08 1013.98 1013.87 1013.75 1013.63 1013.55 1013.52 1013.58 1013.75 1014.02 1014.40 1014.85 1015.35 1015.85 1016.32 1016.73 1017.05
1015.60 1015.92 1016.15 1016.30 1016.36 1016.34 1016.25 1016.13 1015.98 1015.84 1015.73 1015.64 1015.58 1015.54 1015.49 1015.42 1015.32 1015.18 1015.02 1014.84 1014.66 1014.51 1014.39 1014.30 1014.24 1014.19 1014.12 1014.04 1013.91 1013.76 1013.60 1013.46 1013.37 1013.37 1013.47 1013.68 1014.00 1014.41 1014.87 1015.35 1015.80 1016.20 1016.53
1015.54 1015.83 1016.04 1016.17 1016.23 1016.21 1016.14 1016.03 1015.91 1015.79 1015.70 1015.62 1015.55 1015.48 1015.40 1015.30 1015.16 1014.99 1014.81 1014.64 1014.48 1014.35 1014.27 1014.22 1014.20 1014.18 1014.14 1014.06 1013.94 1013.77 1013.59 1013.41 1013.27 1013.21 1013.25 1013.40 1013.66 1013.99 1014.39 1014.80 1015.21 1015.57 1015.88
1015.48 1015.74 1015.94 1016.07 1016.12 1016.12 1016.07 1015.99 1015.90 1015.81 1015.73 1015.65 1015.58 1015.49 1015.38 1015.24 1015.07 1014.88 1014.68 1014.49 1014.33 1014.21 1014.14 1014.11 1014.10 1014.10 1014.07 1014.00 1013.89 1013.72 1013.53 1013.34 1013.19 1013.09 1013.08 1013.17 1013.35 1013.61 1013.91 1014.24 1014.56 1014.87 1015.14
1015.43 1015.69 1015.88 1016.01 1016.08 1016.11 1016.09 1016.04 1015.97 1015.90 1015.83 1015.75 1015.66 1015.55 1015.41 1015.24 1015.03 1014.81 1014.58 1014.36 1014.18 1014.05 1013.96 1013.92 1013.91 1013.90 1013.88 1013.82 1013.72 1013.57 1013.40 1013.23 1013.07 1012.97 1012.94 1012.98 1013.08 1013.25 1013.46 1013.68 1013.91 1014.13 1014.34
1015.41 1015.67 1015.88 1016.03 1016.13 1016.19 1016.20 1016.18 1016.13 1016.07 1016.00 1015.91 1015.80 1015.66 1015.48 1015.27 1015.02 1014.75 1014.48 1014.23 1014.01 1013.84 1013.72 1013.65 1013.61 1013.58 1013.55 1013.49 1013.41 1013.29 1013.16 1013.02 1012.91 1012.82 1012.78 1012.79 1012.85 1012.93 1013.04 1013.16 1013.28 1013.40 1013.54
1015.43 1015.71 1015.95 1016.14 1016.28 1016.37 1016.41 1016.41 1016.38 1016.32 1016.23 1016.11 1015.97 1015.79 1015.57 1015.31 1015.02 1014.72 1014.41 1014.11 1013.84 1013.62 1013.45 1013.32 1013.23 1013.16 1013.11 1013.05 1012.98 1012.90 1012.81 1012.73 1012.66 1012.62 1012.60 1012.60 1012.62 1012.64 1012.67 1012.69 1012.71 1012.74 1012.80
1015.48 1015.80 1016.09 1016.33 1016.51 1016.63 1016.70 1016.72 1016.69 1016.61 1016.50 1016.35 1016.17 1015.95 1015.69 1015.39 1015.07 1014.73 1014.37 1014.03 1013.72 1013.44 1013.20 1013.00 1012.85 1012.73 1012.63 1012.55 1012.48 1012.42 1012.37 1012.34 1012.33 1012.34 1012.35 1012.37 1012.38 1012.37 1012.34 1012.29 1012.23 1012.18 1012.17
1015.57 1015.95 1016.28 1016.57 1016.80 1016.96 1017.05 1017.07 1017.03 1016.94 1016.80 1016.62 1016.40 1016.15 1015.86 1015.54 1015.19 1014.83 1014.45 1014.07 1013.71 1013.37 1013.06 1012.79 1012.56 1012.36 1012.20 1012.07 1011.98 1011.92 1011.89 1011.90 1011.93 1011.98 1012.03 1012.08 1012.10 1012.08 1012.03 1011.94 1011.83 1011.73 1011.67
Thickness
5748 5746 5745 5744 5743 5742 5741 5740 5739 5738 5737 5737 5736 5736 5736 5736 5736 5735 5735 5734 5734 5734 5732 5731 5730 5729 5728 5727 5725 5724 5723 5722 5721 5720 5719 5718 5716 5715 5714 5712 5711 5710 5708
5747 5745 5743 5742 5741 5740 5739 5738 5737 5736 5735 5734 5734 5734 5734 5734 5734 5733 5733 5733 5733 5732 5730 5729 5728 5727 5726 5725 5724 5722 5721 5720 5719 5719 5718 5716 5715 5714 5712 5711 5710 5708 5707
5747 5744 5742 5741 5740 5738 5737 5736 5735 5734 5732 5731 5731 5731 5731 5732 5732 5732 5731 5731 5730 5729 5728 5728 5726 5725 5724 5723 5722 5721 5720 5719 5718 5717 5716 5715 5714 5712 5711 5709 5708 5707 5705
5746 5743 5741 5740 5739 5737 5735 5734 5732 5729 5728 5727 5727 5727 5728 5728 5729 5729 5729 5728 5727 5727 5726 5726 5724 5723 5722 5721 5720 5719 5718 5717 5716 5715 5714 5713 5712 5710 5708 5707 5706 5704 5703
5744 5742 5740 5738 5737 5735 5733 5732 5729 5727 5725 5724 5724 5724 5724 5725 5726 5727 5726 5725 5725 5724 5724 5723 5722 5721 5720 5719 5718 5718 5716 5715 5714 5713 5712 5711 5710 5708 5706 5705 5703 5702 5701
5743 5741 5738 5737 5735 5733 5731 5729 5727 5725 5723 5722 5721 5721 5721 5722 5723 5723 5723 5723 5722 5722 5721 5721 5720 5719 5718 5718 5717 5716 5715 5714 5712 5711 5710 5709 5707 5706 5704 5703 5701 5700 5699
5741 5739 5737 5734 5732 5730 5729 5727 5725 5721 5719 5718 5714 5712 5715 5718 5718 5719 5719 5718 5718 5718 5718 5717 5717 5716 5715 5715 5715 5714 5713 5711 5710 5709 5708 5706 5705 5704 5702 5700 5699 5698 5696
5739 5737 5734 5732 5730 5728 5725 5724 5722 5718 5715 5715 5710 5704 5702 5706 5711 5716 5715 5715 5715 5715 5714 5714 5713 5713 5712 5712 5712 5711 5710 5709 5708 5707 5705 5704 5702 5701 5699 5697 5696 5695 5694
5737 5735 5732 5730 5728 5725 5722 5721 5719 5715 5711 5710 5710 5704 5697 5696 5701 5707 5710 5711 5711 5711 5711 5710 5710 5710 5709 5708 5708 5708 5707 5706 5705 5704 5702 5701 5699 5698 5696 5695 5693 5692 5691
5733 5732 5730 5728 5726 5723 5720 5718 5716 5713 5710 5706 5705 5705 5703 5701 5696 5696 5701 5705 5706 5706 5706 5707 5706 5706 5705 5705 5705 5705 5704 5703 5702 5701 5700 5698 5697 5695 5693 5691 5690 5689 5688
5729 5728 5726 5724 5722 5719 5717 5715 5713 5710 5708 5705 5702 5701 5699 5698 5697 5693 5691 5695 5699 5702 5703 5703 5703 5703 5702 5702 5701 5701 5701 5700 5698 5697 5696 5695 5693 5692 5690 5688 5687 5686 5685
5724 5724 5722 5720 5718 5716 5714 5712 5709 5706 5704 5702 5700 5698 5696 5693 5691 5689 5687 5688 5690 5695 5698 5699 5699 5699 5698 5697 5697 5697 5696 5695 5693 5693 5692 5691 5689 5688 5687 5685 5684 5683 5682
5719 5718 5718 5715 5714 5712 5711 5708 5705 5703 5701 5699 5697 5695 5693 5692 5690 5687 5684 5683 5683 5687 5690 5693 5694 5694 5693 5693 5692 5691 5691 5689 5688 5687 5687 5686 5685 5684 5682 5681 5680 5679 5678
5715 5715 5713 5711 5710 5708 5706 5703 5700 5698 5697 5695 5693 5691 5689 5688 5687 5685 5682 5678 5676 5677 5680 5684 5688 5688 5688 5687 5686 5686 5685 5684 5683 5682 5682 5681 5680 5679 5678 5677 5676 5675 5674
5711 5710 5708 5706 5705 5703 5701 5698 5695 5693 5692 5690 5688 5687 5685 5685 5684 5682 5680 5678 5673 5669 5671 5677 5679 5683 5682 5681 5680 5680 5680 5679 5677 5677 5676 5676 5675 5674 5673 5672 5671 5671 5670
5707 5705 5703 5701 5699 5698 5696 5693 5690 5688 5686 5685 5683 5682 5681 5680 5679 5678 5676 5674 5672 5668 5665 5670 5673 5675 5675 5675 5674 5674 5674 5673 5672 5672 5672 5671 5670 5669 5668 5667 5666 5666 5665
5702 5700 5698 5696 5694 5692 5691 5688 5685 5683 5681 5680 5679 5677 5676 5676 5674 5673 5671 5670 5667 5665 5662 5665 5667 5668 5667 5667 5667 5666 5666 5666 5666 5666 5666 5666 5665 5665 5664 5663 5662 5661 5660
5697 5695 5693 5691 5688 5687 5685 5683 5681 5679 5676 5675 5674 5672 5671 5671 5669 5668 5666 5664 5662 5661 5658 5658 5659 5659 5659 5659 5659 5658 5658 5658 5659 5660 5660 5660 5660 5660 5659 5658 5657 5656 5655
5691 5690 5688 5685 5682 5681 5680 5678 5677 5675 5673 5672 5671 5669 5667 5665 5663 5662 5660 5658 5657 5657 5654 5652 5652 5652 5651 5652 5650 5650 5651 5651 5652 5654 5654 5654 5654 5654 5654 5652 5652 5650 5649
5685 5684 5682 5680 5678 5677 5675 5673 5672 5670 5668 5667 5666 5665 5664 5662 5660 5658 5656 5654 5652 5649 5647 5645 5644 5644 5643 5644 5643 5642 5641 5643 5644 5646 5647 5648 5648 5647 5647 5647 5646 5645 5644
5681 5679 5677 5676 5674 5672 5671 5668 5667 5666 5663 5662 5661 5660 5660 5659 5657 5655 5653 5649 5646 5643 5640 5638 5637 5636 5636 5635 5635 5635 5635 5635 5636 5639 5639 5640 5641 5640 5640 5640 5640 5640 5639
5676 5674 5672 5670 5669 5668 5666 5664 5662 5660 5658 5657 5656 5655 5655 5653 5652 5650 5648 5645 5642 5638 5635 5632 5630 5629 5629 5630 5630 5630 5628 5627 5627 5631 5631 5632 5633 5633 5635 5635 5635 5635 5634
5670 5668 5667 5665 5663 5661 5660 5658 5656 5654 5653 5652 5651 5649 5649 5648 5645 5643 5641 5640 5638 5636 5634 5630 5626 5626 5625 5626 5624 5623 5622 5621 5622 5625 5624 5624 5626 5627 5630 5630 5630 5629 5629
5663 5662 5661 5660 5657 5656 5654 5652 5650 5648 5646 5646 5645 5644 5642 5640 5639 5636 5634 5632 5631 5630 5629 5627 5626 5625 5624 5623 5621 5620 5618 5617 5617 5618 5618 5617 5619 5620 5623 5624 5624 5624 5623
5657 5656 5655 5654 5652 5651 5649 5646 5644 5641 5639 5638 5638 5637 5635 5633 5632 5630 5627 5625 5624 5624 5624 5624 5622 5621 5620 5618 5616 5613 5611 5609 5609 5610 5611 5610 5611 5612 5614 5616 5618 5618 5617
5653 5651 5650 5649 5647 5645 5643 5641 5638 5635 5632 5631 5630 5630 5628 5626 5624 5622 5620 5618 5616 5617 5617 5616 5614 5614 5613 5612 5611 5609 5606 5603 5601 5602 5605 5603 5604 5604 5605 5609 5610 5611 5610